Location: Mentone
(34.5413°N, 85.5351°W)
Time: 09:52:48
(UTC-06:00)

Tiros 1 despin weight - All Passes

Search period start: 27 February 2017 00:00
Search period end: 09 March 2017 00:00
Orbit: 595 x 644 km, 48.2° (Epoch: 26 February)

Date Brightness Start Highest point End Pass type
(mag) Time Alt. Az. Time Alt. Az. Time Alt. Az.
27 Feb - 11:12:36 10° S 11:16:20 26° SE 11:20:07 10° ENE daylight
27 Feb - 12:53:21 10° WSW 12:57:43 49° NNW 13:02:10 10° NE daylight
27 Feb - 14:37:04 10° NW 14:40:09 18° NNW 14:43:16 10° NNE daylight
27 Feb - 16:20:24 10° NNW 16:23:11 16° N 16:26:00 10° NE daylight
27 Feb - 18:01:37 10° NW 18:05:52 34° NNE 18:10:09 10° E visible
27 Feb - 19:43:06 10° WNW 19:47:35 47° SW 19:52:06 10° SSE visible
28 Feb - 11:28:51 10° SW 11:33:13 57° SE 11:37:39 10° ENE daylight
28 Feb - 13:11:04 10° W 13:15:01 29° NNW 13:19:02 10° NE daylight
28 Feb - 14:55:09 10° NW 14:57:47 15° N 15:00:27 10° NNE daylight
28 Feb - 16:37:27 10° NNW 16:40:48 19° NNE 16:44:09 10° ENE daylight
28 Feb - 18:18:31 10° NW 18:23:07 59° NE 18:27:45 10° ESE visible
28 Feb - 20:00:48 10° W 20:04:27 23° SW 20:08:07 10° S visible
01 Mar - 10:06:11 10° S 10:09:06 17° SE 10:12:02 10° E daylight
01 Mar - 11:45:49 10° WSW 11:50:15 70° NW 11:54:48 10° NE daylight
01 Mar - 13:29:06 10° WNW 13:32:28 20° NNW 13:35:54 10° NNE daylight
01 Mar - 15:12:52 10° NNW 15:15:27 15° N 15:18:03 10° NE daylight
01 Mar - 16:54:20 10° NW 16:58:17 27° NNE 17:02:15 10° E daylight
01 Mar - 18:35:34 10° WNW 18:40:13 71° SW 18:44:53 10° SE visible
02 Mar - 10:21:49 10° SSW 10:25:54 37° SE 10:30:03 10° ENE daylight
02 Mar - 12:03:17 10° W 12:07:28 38° NNW 12:11:43 10° NE daylight
02 Mar - 13:47:15 10° NW 13:50:03 16° N 13:52:53 10° NNE daylight
02 Mar - 15:30:07 10° NNW 15:33:06 17° NNE 15:36:06 10° NE daylight
02 Mar - 17:11:12 10° NW 17:15:37 43° NNE 17:20:04 10° ESE daylight
02 Mar - 18:52:57 10° WNW 18:57:09 34° SW 19:01:23 10° SSE visible
03 Mar - 09:00:51 10° SE 09:01:53 11° SE 09:02:55 10° ESE daylight
03 Mar - 10:38:25 10° SW 10:42:51 80° SE 10:47:22 10° NE daylight
03 Mar - 12:21:10 10° WNW 12:24:50 24° NNW 12:28:33 10° NNE daylight
03 Mar - 14:05:12 10° NW 14:07:43 14° N 14:10:14 10° NNE daylight
03 Mar - 15:47:04 10° NNW 15:50:39 22° NNE 15:54:15 10° ENE daylight
03 Mar - 17:28:09 10° NW 17:32:47 80° NE 17:37:29 10° SE daylight
03 Mar - 19:11:07 10° W 19:13:57 16° SW 19:16:48 10° SSW visible
04 Mar - 09:15:03 10° S 09:18:37 24° SE 09:22:14 10° ENE daylight
04 Mar - 10:55:38 10° WSW 10:59:57 52° NNW 11:04:23 10° NE daylight
04 Mar - 12:39:17 10° WNW 12:42:21 18° NNW 12:45:27 10° NNE daylight
04 Mar - 14:22:41 10° NNW 14:25:23 15° N 14:28:04 10° NE daylight
04 Mar - 16:03:55 10° NW 16:08:04 32° NNE 16:12:15 10° E daylight
04 Mar - 17:45:19 10° WNW 17:49:49 51° SW 17:54:20 10° SSE daylight
05 Mar - 09:31:11 10° SW 09:35:30 53° SE 09:39:51 10° ENE daylight
05 Mar - 11:13:18 10° W 11:17:14 30° NNW 11:21:14 10° NE daylight
05 Mar - 12:57:23 10° NW 12:59:58 15° N 13:02:34 10° NNE daylight
05 Mar - 14:39:46 10° NNW 14:42:58 18° NNE 14:46:13 10° ENE daylight
05 Mar - 16:20:47 10° NW 16:25:19 56° NNE 16:29:54 10° ESE daylight
05 Mar - 18:02:57 10° WNW 18:06:41 24° SW 18:10:26 10° S visible
06 Mar - 08:08:42 10° SSE 08:11:23 16° SE 08:14:04 10° E daylight
06 Mar - 09:48:06 10° WSW 09:52:30 75° NW 09:57:00 10° NE daylight
06 Mar - 11:31:19 10° WNW 11:34:41 20° NNW 11:38:05 10° NNE daylight
06 Mar - 13:15:09 10° NNW 13:17:38 14° N 13:20:08 10° NE daylight
06 Mar - 14:56:38 10° NW 15:00:28 25° NNE 15:04:20 10° E daylight
06 Mar - 16:37:49 10° NW 16:42:25 76° SW 16:47:04 10° SE daylight
06 Mar - 18:22:16 10° WSW 18:23:26 11° SW 18:24:36 10° SW visible
07 Mar - 08:24:11 10° SSW 08:28:10 34° SE 08:32:13 10° ENE daylight
07 Mar - 10:05:32 10° W 10:09:42 39° NNW 10:13:56 10° NE daylight
07 Mar - 11:49:28 10° NW 11:52:15 16° N 11:55:02 10° NNE daylight
07 Mar - 13:32:25 10° NNW 13:35:16 16° N 13:38:09 10° NE daylight
07 Mar - 15:13:29 10° NW 15:17:48 40° NNE 15:22:11 10° E daylight
07 Mar - 16:55:09 10° WNW 16:59:22 36° SW 17:03:38 10° SSE daylight
08 Mar - 08:40:43 10° SW 08:45:06 75° SE 08:49:34 10° NE daylight
08 Mar - 10:23:22 10° WNW 10:27:03 25° NNW 10:30:46 10° NNE daylight
08 Mar - 12:07:27 10° NW 12:09:53 14° N 12:12:20 10° NNE daylight
08 Mar - 13:49:22 10° NNW 13:52:50 21° NNE 13:56:19 10° ENE daylight
08 Mar - 15:30:24 10° NW 15:34:59 75° NE 15:39:38 10° ESE daylight
08 Mar - 17:13:12 10° W 17:16:11 17° SW 17:19:12 10° S daylight
